2023/08/28 00:00:00, 0.8,22.8
2023/08/28 00:10:00, 0.7,22.7
2023/08/28 00:20:00, 0.8,22.3
2023/08/28 00:30:00, 0.8,22.3
2023/08/28 00:40:00, 0.8,22.3
2023/08/28 00:50:00, 0.8,22.3
2023/08/28 01:00:00, 0.8,22.2
2023/08/28 01:10:00, 0.8,22.2
2023/08/28 01:20:00, 0.8,22.2
2023/08/28 01:30:00, 0.8,22.1
2023/08/28 01:40:00, 0.8,22.2
2023/08/28 01:50:00, 0.8,22.2
2023/08/28 02:00:00, 0.8,22.1
2023/08/28 02:10:00, 0.8,22.0
2023/08/28 02:20:00, 0.8,21.9
2023/08/28 02:30:00, 0.8,22.0
2023/08/28 02:40:00, 0.7,22.2
2023/08/28 02:50:00, 0.7,21.9
2023/08/28 03:00:00, 0.7,22.1
2023/08/28 03:10:00, 0.8,21.8
2023/08/28 03:20:00, 0.7,22.4
2023/08/28 03:30:00, 0.7,21.9
2023/08/28 03:40:00, 0.7,21.9
2023/08/28 03:50:00, 0.7,21.9
2023/08/28 04:00:00, 0.8,21.9
2023/08/28 04:10:00, 0.8,22.0
2023/08/28 04:20:00, 0.8,22.0
2023/08/28 04:30:00, 0.8,21.9
2023/08/28 04:40:00, 0.8,21.5
2023/08/28 04:50:00, 0.8,21.5
2023/08/28 05:00:00, 0.8,21.4
2023/08/28 05:10:00, 0.8,21.3
2023/08/28 05:20:00, 0.8,21.5
2023/08/28 05:30:00, 0.8,21.3
2023/08/28 05:40:00, 0.7,21.3
2023/08/28 05:50:00, 0.7,21.4
2023/08/28 06:00:00, 0.8,21.5
2023/08/28 06:10:00, 0.8,21.8
2023/08/28 06:20:00, 0.8,21.8
2023/08/28 06:30:00, 0.8,21.9
2023/08/28 06:40:00, 0.8,24.4
2023/08/28 06:50:00, 0.8,32.5
2023/08/28 07:00:00, 0.7,35.0
2023/08/28 07:10:00, 0.7,35.2
2023/08/28 07:20:00, 0.6,34.8
2023/08/28 07:30:00, 0.6,34.5
2023/08/28 07:40:00, 0.6,32.1
2023/08/28 07:50:00, 0.7,30.5
2023/08/28 08:00:00, 0.7,30.1
2023/08/28 08:10:00, 0.7,29.6
2023/08/28 08:20:00, 0.6,30.2
2023/08/28 08:30:00, 0.6,30.7
2023/08/28 08:40:00, 0.6,30.6
2023/08/28 08:50:00, 0.7,31.0
2023/08/28 09:00:00, 0.7,31.2
2023/08/28 09:10:00, 0.7,30.9
2023/08/28 09:20:00, 0.7,31.4
2023/08/28 09:30:00, 0.7,31.8
2023/08/28 09:40:00, 0.8,31.3
2023/08/28 09:50:00, 0.8,31.6
2023/08/28 10:00:00, 0.8,31.3
2023/08/28 10:10:00, 0.7,32.1
2023/08/28 10:20:00, 0.7,32.1
2023/08/28 10:30:00, 0.7,32.5
2023/08/28 10:40:00, 0.8,32.8
2023/08/28 10:50:00, 0.8,32.8
2023/08/28 11:00:00, 0.8,33.2
2023/08/28 11:10:00, 0.7,34.3
2023/08/28 11:20:00, 0.7,33.9
2023/08/28 11:30:00, 0.8,34.2
2023/08/28 11:40:00, 0.8,34.3
2023/08/28 11:50:00, 0.8,34.7
2023/08/28 12:00:00, 0.7,34.9
2023/08/28 12:10:00, 0.6,34.9
2023/08/28 12:20:00, 0.7,35.2
2023/08/28 12:30:00, 0.7,35.3
2023/08/28 12:40:00, 0.7,35.4
2023/08/28 12:50:00, 0.7,36.1
2023/08/28 13:00:00, 0.8,34.8
2023/08/28 13:10:00, 0.8,32.2
2023/08/28 13:20:00, 0.8,32.1
2023/08/28 13:30:00, 0.8,31.9
2023/08/28 13:40:00, 0.8,31.8
2023/08/28 13:50:00, 0.8,31.2
2023/08/28 14:00:00, 0.8,31.1
2023/08/28 14:10:00, 0.6,30.8
2023/08/28 14:20:00, 0.6,30.6
2023/08/28 14:30:00, 0.6,30.6
2023/08/28 14:40:00, 0.6,30.4
2023/08/28 14:50:00, 0.6,30.5
2023/08/28 15:00:00, 0.6,30.4
2023/08/28 15:10:00, 0.6,30.2
2023/08/28 15:20:00, 0.5,30.1
2023/08/28 15:30:00, 0.6,29.9
2023/08/28 15:40:00, 0.6,30.0
2023/08/28 15:50:00, 0.6,30.0
2023/08/28 16:00:00, 0.6,29.8
2023/08/28 16:10:00, 0.6,29.8
2023/08/28 16:20:00, 0.6,29.8
2023/08/28 16:30:00, 0.6,29.4
2023/08/28 16:40:00, 0.6,29.6
2023/08/28 16:50:00, 0.6,29.4
2023/08/28 17:00:00, 0.7,29.6
2023/08/28 17:10:00, 0.7,29.3
2023/08/28 17:20:00, 0.7,29.2
2023/08/28 17:30:00, 0.6,29.2
2023/08/28 17:40:00, 0.5,28.9
2023/08/28 17:50:00, 0.6,28.3
2023/08/28 18:00:00, 0.7,27.4
2023/08/28 18:10:00, 0.6,26.8
2023/08/28 18:20:00, 0.6,25.8
2023/08/28 18:30:00, 0.6,25.4
2023/08/28 18:40:00, 0.7,25.3
2023/08/28 18:50:00, 0.7,25.3
2023/08/28 19:00:00, 0.6,25.2
2023/08/28 19:10:00, 0.6,25.0
2023/08/28 19:20:00, 0.6,25.1
2023/08/28 19:30:00, 0.7,24.8
2023/08/28 19:40:00, 0.6,24.7
2023/08/28 19:50:00, 0.6,24.7
2023/08/28 20:00:00, 0.6,24.5
2023/08/28 20:10:00, 0.7,24.4
2023/08/28 20:20:00, 0.7,24.3
2023/08/28 20:30:00, 0.6,24.1
2023/08/28 20:40:00, 0.7,24.0
2023/08/28 20:50:00, 0.6,24.0
2023/08/28 21:00:00, 0.6,24.0
2023/08/28 21:10:00, 0.7,24.0
2023/08/28 21:20:00, 0.8,23.8
2023/08/28 21:30:00, 0.8,24.0
2023/08/28 21:40:00, 0.7,24.0
2023/08/28 21:50:00, 0.8,23.7
2023/08/28 22:00:00, 0.7,23.4
2023/08/28 22:10:00, 0.7,23.6
2023/08/28 22:20:00, 0.7,23.5
2023/08/28 22:30:00, 0.7,23.4
2023/08/28 22:40:00, 0.7,23.3
2023/08/28 22:50:00, 0.8,23.3
2023/08/28 23:00:00, 0.8,23.0
2023/08/28 23:10:00, 0.8,23.2
2023/08/28 23:20:00, 0.8,23.3
2023/08/28 23:30:00, 0.8,23.1
2023/08/28 23:40:00, 0.8,23.2
2023/08/28 23:50:00, 0.8,22.7
